Weather History for Siemreap, Cambodia

Change the Weather History Date:

Thursday, June 12, 2014

  Actual Average Record
Temperature  
Mean Temperature 84 °F -  
Max Temperature 91 °F - - ()
Min Temperature 78 °F - - ()
Cooling Degree Days 20    
Growing Degree Days 34 (Base 50)    
Moisture  
Dew Point 77 °F    
Average Humidity 80    
Maximum Humidity 94    
Minimum Humidity 59    
Precipitation  
Precipitation 0.00 in - - ()
Sea Level Pressure  
Sea Level Pressure 29.57 in    
Wind  
Wind Speed 8 mph ()    
Max Wind Speed 36 mph    
Max Gust Speed -    
Visibility 6.1 miles    
Events Rain    
T = Trace of Precipitation, MM = Missing Value Source: Averaged Metar Reports

Daily Weather History Graph

Daily Weather History Graph

Search for Another Location

Airport:

Trip Planner

Search our weather history database for the weather conditions in past years. The results will help you decide how hot, cold, wet, or windy it might be!

Date:

Astronomy

Jun. 12, 2014 Rise Set
Actual Time 5:37 AM ICT 6:31 PM ICT
Civil Twilight 5:13 AM ICT 6:54 PM ICT
Nautical Twilight 4:46 AM ICT 7:22 PM ICT
Astronomical Twilight 4:18 AM ICT 7:50 PM ICT
Moon 5:43 PM ICT (6/12) 4:34 AM ICT (6/12)
Length of Visible Light 13h 41m
Length of Day
12h 54m
Waxing Gibbous, 99% of the Moon is Illuminated
Jun 12
Waxing Gibbous
Jun 13
Full
Jun 20
Last Quarter
Jun 27
New
Jul 5
First Quarter

Hourly Weather History & Observations

Time (ICT) Temp. Heat Index Dew Point Humidity Pressure Visibility Wind Dir Wind Speed Gust Speed Precip Events Conditions
12:00 AM 80.6 °F 88.1 °F 78.8 °F 94% 29.62 in 5.0 mi WSW 5.8 mph - N/A   Mostly Cloudy
12:30 AM 80.6 °F 88.1 °F 78.8 °F 94% 29.62 in 5.0 mi Calm Calm - N/A   Mostly Cloudy
1:00 AM 80.6 °F 88.1 °F 78.8 °F 94% 29.59 in 5.0 mi Calm Calm - N/A Rain Light Rain
7:00 AM - - - %  in - Calm Calm - -  
7:00 AM 78.8 °F - 77.0 °F 94% 29.59 in 6.2 mi SW 8.1 mph - N/A   Scattered Clouds
7:30 AM 80.6 °F 87.1 °F 77.0 °F 89% 29.59 in 6.2 mi WSW 5.8 mph - N/A   Scattered Clouds
8:00 AM 80.6 °F 87.1 °F 77.0 °F 89% 29.59 in 6.2 mi WSW 5.8 mph - N/A   Scattered Clouds
8:30 AM 82.4 °F 90.9 °F 77.0 °F 84% 29.59 in 6.2 mi SW 8.1 mph - N/A   Scattered Clouds
9:00 AM 84.2 °F 94.1 °F 77.0 °F 79% 29.59 in 6.2 mi SW 12.7 mph - N/A   Scattered Clouds
9:30 AM 86.0 °F 96.9 °F 77.0 °F 74% 29.59 in 6.2 mi WSW 16.1 mph - N/A   Scattered Clouds
10:00 AM 87.8 °F 99.7 °F 77.0 °F 70% 29.59 in 6.2 mi WSW 15.0 mph - N/A   Scattered Clouds
10:30 AM 87.8 °F 99.7 °F 77.0 °F 70% 29.59 in 6.2 mi SW 19.6 mph - N/A   Scattered Clouds
11:00 AM 87.8 °F 99.7 °F 77.0 °F 70% 29.59 in 6.2 mi SW 16.1 mph - N/A   Scattered Clouds
11:30 AM 89.6 °F 102.2 °F 77.0 °F 66% 29.59 in 6.2 mi SW 13.8 mph - N/A   Scattered Clouds
12:00 PM 89.6 °F 99.8 °F 75.2 °F 62% 29.56 in 6.2 mi SW 16.1 mph - N/A   Scattered Clouds
12:30 PM 89.6 °F 98.2 °F 73.4 °F 59% 29.56 in 6.2 mi WSW 16.1 mph - N/A   Scattered Clouds
1:00 PM 89.6 °F 99.8 °F 75.2 °F 62% 29.56 in 6.2 mi WSW 13.8 mph - N/A   Scattered Clouds
1:30 PM 91.4 °F 102.5 °F 75.2 °F 59% 29.56 in 6.2 mi West 15.0 mph - N/A   Scattered Clouds
2:00 PM 89.6 °F 99.8 °F 75.2 °F 62% 29.53 in 6.2 mi WSW 13.8 mph - N/A   Scattered Clouds
2:30 PM 89.6 °F 98.2 °F 73.4 °F 59% 29.53 in 6.2 mi West 16.1 mph - N/A   Scattered Clouds
3:00 PM 89.6 °F 99.8 °F 75.2 °F 62% 29.53 in 5.0 mi WSW 35.7 mph - N/A Rain Rain
3:13 PM 78.8 °F - 77.0 °F 94% 29.53 in 5.6 mi WNW 8.1 mph - N/A Rain Light Rain
3:30 PM 78.8 °F - 77.0 °F 94% 29.53 in 6.2 mi West 9.2 mph - N/A   Mostly Cloudy
4:00 PM 82.4 °F 92.4 °F 78.8 °F 89% 29.53 in 6.2 mi West 5.8 mph - N/A   Mostly Cloudy
4:30 PM 82.4 °F 92.4 °F 78.8 °F 89% 29.53 in 6.2 mi West 8.1 mph - N/A   Mostly Cloudy
5:00 PM 82.4 °F 92.4 °F 78.8 °F 89% 29.53 in 6.2 mi West 5.8 mph - N/A   Mostly Cloudy
5:30 PM 82.4 °F 92.4 °F 78.8 °F 89% 29.53 in 6.2 mi WSW 2.3 mph - N/A   Scattered Clouds
6:00 PM 82.4 °F 94.0 °F 80.6 °F 94% 29.53 in 6.2 mi SSW 3.5 mph - N/A   Scattered Clouds
6:30 PM 84.2 °F 96.1 °F 78.8 °F 84% 29.53 in 6.2 mi SSW 4.6 mph - N/A   Scattered Clouds
7:00 PM 84.2 °F 94.1 °F 77.0 °F 79% 29.53 in 6.2 mi SW 5.8 mph - N/A   Scattered Clouds
7:30 PM 82.4 °F 90.9 °F 77.0 °F 84% 29.56 in 6.2 mi WSW 6.9 mph - N/A   Scattered Clouds
8:30 PM 82.4 °F 90.9 °F 77.0 °F 84% 29.59 in 6.2 mi WSW 6.9 mph - N/A   Scattered Clouds
9:30 PM 82.4 °F 90.9 °F 77.0 °F 84% 29.62 in 6.2 mi SW 4.6 mph - N/A   Scattered Clouds
10:00 PM 82.4 °F 89.5 °F 75.2 °F 79% 29.62 in 6.2 mi SSW 4.6 mph - N/A   Scattered Clouds
10:30 PM 82.4 °F 89.5 °F 75.2 °F 79% 29.62 in 6.2 mi SW 10.4 mph - N/A   Scattered Clouds
11:00 PM 82.4 °F 89.5 °F 75.2 °F 79% 29.62 in 6.2 mi SW 9.2 mph - N/A   Scattered Clouds
11:30 PM 80.6 °F 86.2 °F 75.2 °F 84% 29.62 in 6.2 mi SW 10.4 mph - N/A   Scattered Clouds